Time,TemperatureF,DewpointF,PressureIn,WindDirection,WindDirectionDegrees,WindSpeedMPH,WindSpeedGustMPH,Humidity,HourlyPrecipIn,Conditions,Clouds,dailyrainin,SoftwareType,DateUTC
2013-07-05 15:00:00,92.5,60.0,29.34,WSW,247,3.5,3.5,34,0.00,CLR,,0.00,WeatherDisplay:10.37,2013-07-05 19:00:00,
2013-07-05 15:05:00,87.6,55.0,29.39,South,180,3.5,3.5,33,0.00,CLR,,0.00,WeatherDisplay:10.37,2013-07-05 19:05:00,
2013-07-05 15:06:00,87.6,54.1,29.36,South,180,3.5,3.5,32,0.00,CLR,,0.00,WeatherDisplay:10.37,2013-07-05 19:06:00,
2013-07-05 15:10:00,87.4,54.0,29.34,North,0,3.5,3.5,32,0.00,CLR,,0.00,WeatherDisplay:10.37,2013-07-05 19:10:00,
2013-07-05 15:11:00,87.4,54.0,29.34,North,0,3.5,3.5,32,0.00,CLR,,0.00,WeatherDisplay:10.37,2013-07-05 19:11:00,
2013-07-05 15:15:00,86.9,55.2,29.32,NNW,337,3.6,3.6,34,0.00,CLR,,0.00,WeatherDisplay:10.37,2013-07-05 19:15:00,
2013-07-05 15:16:00,86.9,55.2,29.32,NNW,337,3.6,3.6,34,0.00,CLR,,0.00,WeatherDisplay:10.37,2013-07-05 19:16:00,
2013-07-05 15:20:00,86.7,54.2,29.33,SSE,157,3.6,3.6,33,0.00,CLR,,0.00,WeatherDisplay:10.37,2013-07-05 19:20:00,
2013-07-05 15:21:00,87.1,54.5,29.33,SSE,157,3.6,3.6,33,0.00,CLR,,0.00,WeatherDisplay:10.37,2013-07-05 19:21:00,
2013-07-05 15:22:00,87.1,54.5,29.33,SSE,157,3.6,3.6,33,0.00,CLR,,0.00,WeatherDisplay:10.37,2013-07-05 19:22:00,
2013-07-05 15:26:00,87.1,53.6,29.37,South,180,3.8,3.8,32,0.00,CLR,,0.00,WeatherDisplay:10.37,2013-07-05 19:26:00,
2013-07-05 15:27:00,87.4,54.0,29.37,SSW,202,3.8,3.8,32,0.00,CLR,,0.00,WeatherDisplay:10.37,2013-07-05 19:27:00,
2013-07-05 15:31:00,88.0,54.4,29.36,ESE,112,3.8,3.8,32,0.00,CLR,,0.00,WeatherDisplay:10.37,2013-07-05 19:31:00,
2013-07-05 15:32:00,87.6,53.2,29.33,ESE,112,3.8,3.8,31,0.00,CLR,,0.00,WeatherDisplay:10.37,2013-07-05 19:32:00,
2013-07-05 15:36:00,86.9,53.5,29.32,SW,225,3.8,3.8,32,0.00,CLR,,0.00,WeatherDisplay:10.37,2013-07-05 19:36:00,
2013-07-05 15:37:00,86.5,53.2,29.32,West,270,3.8,3.8,32,0.00,CLR,,0.00,WeatherDisplay:10.37,2013-07-05 19:37:00,
2013-07-05 15:38:00,86.5,53.2,29.32,West,270,3.8,3.8,32,0.00,CLR,,0.00,WeatherDisplay:10.37,2013-07-05 19:38:00,
2013-07-05 15:41:00,84.2,51.1,29.42,North,0,1.7,1.7,32,0.00,CLR,,0.00,WeatherDisplay:10.37,2013-07-05 19:41:00,
2013-07-05 15:42:00,84.2,51.1,29.32,ENE,67,1.7,1.7,32,0.00,CLR,,0.00,WeatherDisplay:10.37,2013-07-05 19:42:00,
2013-07-05 15:43:00,83.3,50.4,29.32,NNE,22,1.7,1.7,32,0.00,CLR,,0.00,WeatherDisplay:10.37,2013-07-05 19:43:00,
2013-07-05 15:46:00,82.0,49.3,29.32,NE,45,1.7,1.7,32,0.00,CLR,,0.00,WeatherDisplay:10.37,2013-07-05 19:46:00,
2013-07-05 15:47:00,82.0,49.3,29.32,NE,45,1.7,1.7,32,0.00,CLR,,0.00,WeatherDisplay:10.37,2013-07-05 19:47:00,
2013-07-05 15:48:00,82.0,49.3,29.32,NE,45,1.7,1.7,32,0.00,CLR,,0.00,WeatherDisplay:10.37,2013-07-05 19:48:00,
2013-07-05 15:51:00,81.7,48.9,29.37,WNW,292,1.7,0.0,32,0.00,CLR,,0.00,WeatherDisplay:10.37,2013-07-05 19:51:00,
2013-07-05 15:53:00,81.9,49.1,29.32,SW,225,1.7,1.7,32,0.00,CLR,,0.00,WeatherDisplay:10.37,2013-07-05 19:53:00,
2013-07-05 15:56:00,82.9,49.2,29.32,SW,225,1.7,1.7,31,0.00,CLR,,0.00,WeatherDisplay:10.37,2013-07-05 19:56:00,
2013-07-05 15:58:00,82.9,49.2,29.34,SW,225,1.7,1.7,31,0.00,CLR,,0.00,WeatherDisplay:10.37,2013-07-05 19:58:00,
2013-07-05 16:01:00,83.3,47.7,29.32,WSW,247,2.8,2.8,29,0.00,CLR,,0.00,WeatherDisplay:10.37,2013-07-05 20:01:00,
2013-07-05 16:02:00,83.3,47.7,29.32,WSW,247,2.8,2.8,29,0.00,CLR,,0.00,WeatherDisplay:10.37,2013-07-05 20:02:00,
2013-07-05 16:03:00,82.9,47.4,29.32,WSW,247,2.8,2.8,29,0.00,CLR,,0.00,WeatherDisplay:10.37,2013-07-05 20:03:00,
2013-07-05 16:04:00,82.9,48.3,29.32,South,180,2.8,2.8,30,0.00,CLR,,0.00,WeatherDisplay:10.37,2013-07-05 20:04:00,
2013-07-05 16:07:00,82.9,48.3,29.31,SE,135,2.8,2.8,30,0.00,CLR,,0.00,WeatherDisplay:10.37,2013-07-05 20:07:00,
2013-07-05 16:08:00,83.3,49.5,29.32,WSW,247,2.8,2.8,31,0.00,CLR,,0.00,WeatherDisplay:10.37,2013-07-05 20:08:00,
2013-07-05 16:09:00,83.3,49.5,29.32,WSW,247,2.8,2.8,31,0.00,CLR,,0.00,WeatherDisplay:10.37,2013-07-05 20:09:00,
2013-07-05 16:12:00,83.5,49.7,29.32,North,0,2.8,0.0,31,0.00,CLR,,0.00,WeatherDisplay:10.37,2013-07-05 20:12:00,
2013-07-05 16:13:00,84.0,50.1,29.32,North,0,2.8,0.0,31,0.00,CLR,,0.00,WeatherDisplay:10.37,2013-07-05 20:13:00,
2013-07-05 16:14:00,84.0,50.1,29.35,North,0,2.8,0.0,31,0.00,CLR,,0.00,WeatherDisplay:10.37,2013-07-05 20:14:00,
2013-07-05 16:17:00,84.2,49.4,29.35,East,90,2.8,0.0,30,0.00,CLR,,0.00,WeatherDisplay:10.37,2013-07-05 20:17:00,
2013-07-05 16:18:00,84.6,49.7,29.41,East,90,2.8,2.8,30,0.00,CLR,,0.00,WeatherDisplay:10.37,2013-07-05 20:18:00,
2013-07-05 16:19:00,84.6,49.7,29.41,East,90,2.8,2.8,30,0.00,CLR,,0.00,WeatherDisplay:10.37,2013-07-05 20:19:00,
2013-07-05 16:20:00,84.6,50.6,29.32,SSW,202,2.8,2.8,31,0.00,CLR,,0.00,WeatherDisplay:10.37,2013-07-05 20:20:00,
2013-07-05 16:22:00,84.6,50.6,29.31,SSW,202,2.8,2.8,31,0.00,CLR,,0.00,WeatherDisplay:10.37,2013-07-05 20:22:00,
2013-07-05 16:23:00,84.6,50.6,29.31,SW,225,2.8,2.8,31,0.00,CLR,,0.00,WeatherDisplay:10.37,2013-07-05 20:23:00,
2013-07-05 16:24:00,84.7,52.4,29.31,SW,225,2.8,2.8,33,0.00,CLR,,0.00,WeatherDisplay:10.37,2013-07-05 20:24:00,
2013-07-05 16:25:00,84.7,52.4,29.31,SW,225,2.8,2.8,33,0.00,CLR,,0.00,WeatherDisplay:10.37,2013-07-05 20:25:00,
2013-07-05 16:27:00,84.7,51.6,29.34,SSE,157,2.8,2.8,32,0.00,CLR,,0.00,WeatherDisplay:10.37,2013-07-05 20:27:00,
2013-07-05 16:28:00,84.7,51.6,29.31,SSE,157,2.8,2.8,32,0.00,CLR,,0.00,WeatherDisplay:10.37,2013-07-05 20:28:00,
2013-07-05 16:30:00,84.9,51.8,29.34,West,270,2.8,2.8,32,0.00,CLR,,0.00,WeatherDisplay:10.37,2013-07-05 20:30:00,
2013-07-05 16:32:00,84.7,51.6,29.31,West,270,2.8,2.8,32,0.00,CLR,,0.00,WeatherDisplay:10.37,2013-07-05 20:32:00,
2013-07-05 16:33:00,84.7,50.8,29.34,NNE,22,2.8,2.8,31,0.00,CLR,,0.00,WeatherDisplay:10.37,2013-07-05 20:33:00,
2013-07-05 16:34:00,84.7,50.8,29.34,NNE,22,2.8,2.8,31,0.00,CLR,,0.00,WeatherDisplay:10.37,2013-07-05 20:34:00,
2013-07-05 16:35:00,84.6,50.6,29.34,NW,315,2.8,2.8,31,0.00,CLR,,0.00,WeatherDisplay:10.37,2013-07-05 20:35:00,
2013-07-05 16:36:00,84.6,49.7,29.36,NW,315,2.8,2.8,30,0.00,CLR,,0.00,WeatherDisplay:10.37,2013-07-05 20:36:00,
2013-07-05 16:38:00,84.6,49.7,29.32,SSW,202,2.8,2.8,30,0.00,CLR,,0.00,WeatherDisplay:10.37,2013-07-05 20:38:00,
2013-07-05 16:39:00,84.6,49.7,29.32,NW,315,2.8,2.8,30,0.00,CLR,,0.00,WeatherDisplay:10.37,2013-07-05 20:39:00,
2013-07-05 16:40:00,84.6,49.7,29.36,WSW,247,2.8,2.8,30,0.00,CLR,,0.00,WeatherDisplay:10.37,2013-07-05 20:40:00,
2013-07-05 16:41:00,84.4,49.6,29.36,WSW,247,2.8,2.8,30,0.00,CLR,,0.00,WeatherDisplay:10.37,2013-07-05 20:41:00,
2013-07-05 16:43:00,84.0,50.1,29.35,SSW,202,2.8,0.0,31,0.00,CLR,,0.00,WeatherDisplay:10.37,2013-07-05 20:43:00,
2013-07-05 16:44:00,84.0,50.1,29.35,SSW,202,2.8,0.0,31,0.00,CLR,,0.00,WeatherDisplay:10.37,2013-07-05 20:44:00,
2013-07-05 16:46:00,83.8,50.0,29.31,SW,225,2.8,0.0,31,0.00,CLR,,0.00,WeatherDisplay:10.37,2013-07-05 20:46:00,
2013-07-05 16:48:00,83.8,50.8,30.05,SSW,202,2.8,0.0,32,0.00,CLR,,0.00,WeatherDisplay:10.37,2013-07-05 20:48:00,
2013-07-05 16:49:00,83.8,50.8,29.90,SSW,202,2.8,0.0,32,0.00,CLR,,0.00,WeatherDisplay:10.37,2013-07-05 20:49:00,
2013-07-05 16:51:00,83.8,50.0,29.93,SSW,202,2.8,0.0,31,0.00,CLR,,0.00,WeatherDisplay:10.37,2013-07-05 20:51:00,
2013-07-05 16:52:00,83.8,50.0,29.93,SSW,202,2.8,0.0,31,0.00,CLR,,0.00,WeatherDisplay:10.37,2013-07-05 20:52:00,
2013-07-05 16:53:00,83.8,49.1,29.94,SSW,202,2.8,0.0,30,0.00,CLR,,0.00,WeatherDisplay:10.37,2013-07-05 20:53:00,
2013-07-05 16:54:00,83.8,49.1,29.99,SSW,202,2.8,0.0,30,0.00,CLR,,0.00,WeatherDisplay:10.37,2013-07-05 20:54:00,
2013-07-05 16:56:00,83.8,48.2,29.96,SSW,202,2.8,0.0,29,0.00,CLR,,0.00,WeatherDisplay:10.37,2013-07-05 20:56:00,
2013-07-05 16:57:00,83.8,48.2,29.96,SSW,202,2.8,0.0,29,0.00,CLR,,0.00,WeatherDisplay:10.37,2013-07-05 20:57:00,
2013-07-05 16:58:00,83.8,48.2,29.98,West,270,2.3,0.0,29,0.00,CLR,,0.00,WeatherDisplay:10.37,2013-07-05 20:58:00,
2013-07-05 16:59:00,90.3,53.7,29.98,West,270,2.3,2.3,29,0.00,CLR,,0.00,WeatherDisplay:10.37,2013-07-05 20:59:00,
2013-07-05 17:01:00,85.8,49.9,29.99,North,0,2.8,2.8,29,0.00,CLR,,0.00,WeatherDisplay:10.37,2013-07-05 21:01:00,
2013-07-05 17:03:00,84.9,49.1,29.92,NE,45,2.8,2.8,29,0.00,CLR,,0.00,WeatherDisplay:10.37,2013-07-05 21:03:00,
2013-07-05 17:04:00,84.9,50.0,30.00,WNW,292,2.8,2.8,30,0.00,CLR,,0.00,WeatherDisplay:10.37,2013-07-05 21:04:00,
2013-07-05 17:07:00,83.8,49.1,29.95,NNW,337,2.8,2.8,30,0.00,CLR,,0.00,WeatherDisplay:10.37,2013-07-05 21:07:00,
2013-07-05 17:08:00,83.8,49.1,30.03,NNW,337,2.8,2.8,30,0.00,CLR,,0.00,WeatherDisplay:10.37,2013-07-05 21:08:00,
2013-07-05 17:11:00,83.7,48.9,29.99,WSW,247,2.8,0.0,30,0.00,CLR,,0.00,WeatherDisplay:10.37,2013-07-05 21:11:00,
2013-07-05 17:12:00,83.7,48.9,29.94,ESE,112,2.8,0.0,30,0.00,CLR,,0.00,WeatherDisplay:10.37,2013-07-05 21:12:00,
2013-07-05 17:13:00,83.7,48.9,29.94,ESE,112,2.8,0.0,30,0.00,CLR,,0.00,WeatherDisplay:10.37,2013-07-05 21:13:00,
2013-07-05 17:14:00,83.7,48.9,29.96,South,180,2.8,0.0,30,0.00,CLR,,0.00,WeatherDisplay:10.37,2013-07-05 21:14:00,
2013-07-05 17:16:00,84.0,48.3,29.94,SSE,157,2.8,2.8,29,0.00,CLR,,0.00,WeatherDisplay:10.37,2013-07-05 21:16:00,
2013-07-05 17:18:00,84.2,48.5,29.98,WSW,247,2.8,2.8,29,0.00,CLR,,0.00,WeatherDisplay:10.37,2013-07-05 21:18:00,
2013-07-05 17:22:00,84.6,50.6,30.03,SW,225,2.8,0.0,31,0.00,CLR,,0.00,WeatherDisplay:10.37,2013-07-05 21:22:00,
2013-07-05 17:23:00,84.4,50.4,30.03,SW,225,2.8,2.8,31,0.00,CLR,,0.00,WeatherDisplay:10.37,2013-07-05 21:23:00,
2013-07-05 17:25:00,84.0,51.0,29.92,SSE,157,2.8,0.0,32,0.00,CLR,,0.00,WeatherDisplay:10.37,2013-07-05 21:25:00,
2013-07-05 17:26:00,84.0,51.0,29.92,SW,225,2.8,0.0,32,0.00,CLR,,0.00,WeatherDisplay:10.37,2013-07-05 21:26:00,
2013-07-05 17:28:00,83.8,50.8,29.92,SSW,202,2.8,2.8,32,0.00,CLR,,0.00,WeatherDisplay:10.37,2013-07-05 21:28:00,
2013-07-05 17:29:00,83.7,50.7,29.92,SSW,202,2.8,0.0,32,0.00,CLR,,0.00,WeatherDisplay:10.37,2013-07-05 21:29:00,
2013-07-05 17:30:00,83.7,49.8,29.94,WSW,247,2.8,0.0,31,0.00,CLR,,0.00,WeatherDisplay:10.37,2013-07-05 21:30:00,
2013-07-05 17:31:00,83.7,49.8,29.94,WSW,247,2.8,0.0,31,0.00,CLR,,0.00,WeatherDisplay:10.37,2013-07-05 21:31:00,
2013-07-05 17:33:00,83.7,50.7,30.00,North,0,2.8,0.0,32,0.00,CLR,,0.00,WeatherDisplay:10.37,2013-07-05 21:33:00,
2013-07-05 17:34:00,83.7,50.7,29.91,NNW,337,2.8,0.0,32,0.00,CLR,,0.00,WeatherDisplay:10.37,2013-07-05 21:34:00,
2013-07-05 17:35:00,83.7,50.7,29.91,NNW,337,2.8,0.0,32,0.00,CLR,,0.00,WeatherDisplay:10.37,2013-07-05 21:35:00,
2013-07-05 17:36:00,83.7,49.8,29.92,North,0,2.8,0.0,31,0.00,CLR,,0.00,WeatherDisplay:10.37,2013-07-05 21:36:00,
2013-07-05 17:37:00,83.7,49.8,29.91,North,0,2.3,0.0,31,0.00,CLR,,0.00,WeatherDisplay:10.37,2013-07-05 21:37:00,
2013-07-05 17:39:00,83.3,49.5,30.02,West,270,0.0,0.0,31,0.00,CLR,,0.00,WeatherDisplay:10.37,2013-07-05 21:39:00,
2013-07-05 17:42:00,83.1,49.3,29.95,NE,45,0.0,0.0,31,0.00,CLR,,0.00,WeatherDisplay:10.37,2013-07-05 21:42:00,
2013-07-05 17:43:00,83.1,50.2,29.92,WSW,247,0.0,0.0,32,0.00,CLR,,0.00,WeatherDisplay:10.37,2013-07-05 21:43:00,
2013-07-05 17:45:00,83.1,50.2,29.98,NNE,22,0.0,0.0,32,0.00,CLR,,0.00,WeatherDisplay:10.37,2013-07-05 21:45:00,
2013-07-05 17:47:00,83.1,50.2,30.02,West,270,0.0,0.7,32,0.00,CLR,,0.00,WeatherDisplay:10.37,2013-07-05 21:47:00,
2013-07-05 17:48:00,83.1,49.3,29.93,West,270,0.7,0.7,31,0.00,CLR,,0.00,WeatherDisplay:10.37,2013-07-05 21:48:00,
2013-07-05 17:53:00,83.3,49.5,30.02,SE,135,1.2,0.0,31,0.00,CLR,,0.00,WeatherDisplay:10.37,2013-07-05 21:53:00,
2013-07-05 17:54:00,83.3,49.5,29.92,SSW,202,1.2,0.0,31,0.00,CLR,,0.00,WeatherDisplay:10.37,2013-07-05 21:54:00,
2013-07-05 17:55:00,83.3,49.5,29.92,South,180,1.2,0.0,31,0.00,CLR,,0.00,WeatherDisplay:10.37,2013-07-05 21:55:00,
2013-07-05 17:57:00,83.5,49.7,30.02,South,180,1.2,0.0,31,0.00,CLR,,0.00,WeatherDisplay:10.37,2013-07-05 21:57:00,
2013-07-05 17:59:00,83.5,49.7,29.96,South,180,1.2,0.0,31,0.00,CLR,,0.00,WeatherDisplay:10.37,2013-07-05 21:59:00,
2013-07-05 18:00:00,83.5,49.7,29.96,South,180,1.2,0.0,31,0.00,CLR,,0.00,WeatherDisplay:10.37,2013-07-05 22:00:00,
2013-07-05 18:03:00,83.5,50.5,29.92,SSE,157,1.2,0.0,32,0.00,CLR,,0.00,WeatherDisplay:10.37,2013-07-05 22:03:00,
2013-07-05 18:05:00,83.7,51.5,29.91,SW,225,1.2,0.0,33,0.00,CLR,,0.00,WeatherDisplay:10.37,2013-07-05 22:05:00,
2013-07-05 18:08:00,83.5,52.2,29.92,SSW,202,2.6,0.0,34,0.00,CLR,,0.00,WeatherDisplay:10.37,2013-07-05 22:08:00,
2013-07-05 18:10:00,83.5,51.3,29.93,SW,225,2.6,2.6,33,0.00,CLR,,0.00,WeatherDisplay:10.37,2013-07-05 22:10:00,
2013-07-05 18:11:00,83.5,51.3,29.93,SW,225,2.6,2.6,33,0.00,CLR,,0.00,WeatherDisplay:10.37,2013-07-05 22:11:00,
2013-07-05 18:13:00,83.5,50.5,29.97,NNE,22,2.6,2.6,32,0.00,CLR,,0.00,WeatherDisplay:10.37,2013-07-05 22:13:00,
2013-07-05 18:14:00,83.5,50.5,29.97,NNE,22,2.6,0.0,32,0.00,CLR,,0.00,WeatherDisplay:10.37,2013-07-05 22:14:00,
2013-07-05 18:15:00,83.5,50.5,29.98,West,270,2.6,0.0,32,0.00,CLR,,0.00,WeatherDisplay:10.37,2013-07-05 22:15:00,
2013-07-05 18:16:00,83.5,50.5,29.92,West,270,2.6,0.0,32,0.00,CLR,,0.00,WeatherDisplay:10.37,2013-07-05 22:16:00,
2013-07-05 18:18:00,82.9,49.2,29.94,SW,225,2.6,0.0,31,0.00,CLR,,0.00,WeatherDisplay:10.37,2013-07-05 22:18:00,
2013-07-05 18:20:00,82.6,48.9,29.93,SSW,202,2.6,0.0,31,0.00,CLR,,0.00,WeatherDisplay:10.37,2013-07-05 22:20:00,
2013-07-05 18:21:00,82.2,48.6,29.93,SSW,202,2.6,0.0,31,0.00,CLR,,0.00,WeatherDisplay:10.37,2013-07-05 22:21:00,
2013-07-05 18:24:00,82.0,48.4,29.91,West,270,2.6,0.0,31,0.00,CLR,,0.00,WeatherDisplay:10.37,2013-07-05 22:24:00,
2013-07-05 18:25:00,81.7,48.1,29.91,West,270,2.6,0.0,31,0.00,CLR,,0.00,WeatherDisplay:10.37,2013-07-05 22:25:00,
2013-07-05 18:26:00,81.7,48.9,29.97,SW,225,2.6,0.0,32,0.00,CLR,,0.00,WeatherDisplay:10.37,2013-07-05 22:26:00,
2013-07-05 18:27:00,81.7,48.1,29.92,SW,225,2.6,0.0,31,0.00,CLR,,0.00,WeatherDisplay:10.37,2013-07-05 22:27:00,
2013-07-05 18:28:00,81.7,48.1,29.92,SW,225,2.6,0.0,31,0.00,CLR,,0.00,WeatherDisplay:10.37,2013-07-05 22:28:00,
2013-07-05 18:29:00,81.7,48.9,29.92,South,180,2.6,0.0,32,0.00,CLR,,0.00,WeatherDisplay:10.37,2013-07-05 22:29:00,
2013-07-05 18:30:00,81.7,48.1,30.01,SW,225,2.6,0.0,31,0.00,CLR,,0.00,WeatherDisplay:10.37,2013-07-05 22:30:00,
2013-07-05 18:33:00,81.1,47.6,29.91,SW,225,2.6,0.0,31,0.00,CLR,,0.00,WeatherDisplay:10.37,2013-07-05 22:33:00,
2013-07-05 18:34:00,81.1,46.8,29.91,SSW,202,2.6,0.0,30,0.00,CLR,,0.00,WeatherDisplay:10.37,2013-07-05 22:34:00,
2013-07-05 18:35:00,81.1,46.8,29.91,SSW,202,2.6,0.0,30,0.00,CLR,,0.00,WeatherDisplay:10.37,2013-07-05 22:35:00,
2013-07-05 18:36:00,81.1,46.8,29.92,SE,135,2.6,0.0,30,0.00,CLR,,0.00,WeatherDisplay:10.37,2013-07-05 22:36:00,
2013-07-05 18:39:00,80.6,47.2,30.03,WSW,247,2.3,0.0,31,0.00,CLR,,0.00,WeatherDisplay:10.37,2013-07-05 22:39:00,
2013-07-05 18:40:00,80.6,48.0,29.91,NE,45,0.0,0.0,32,0.00,CLR,,0.00,WeatherDisplay:10.37,2013-07-05 22:40:00,
2013-07-05 18:42:00,80.6,48.0,29.95,North,0,0.0,0.0,32,0.00,CLR,,0.00,WeatherDisplay:10.37,2013-07-05 22:42:00,
2013-07-05 18:46:00,80.4,47.9,29.95,SSW,202,0.0,0.0,32,0.00,CLR,,0.00,WeatherDisplay:10.37,2013-07-05 22:46:00,
2013-07-05 18:47:00,80.4,47.9,29.95,SSW,202,0.0,0.0,32,0.00,CLR,,0.00,WeatherDisplay:10.37,2013-07-05 22:47:00,
2013-07-05 18:48:00,80.4,47.9,29.91,SSE,157,0.0,0.0,32,0.00,CLR,,0.00,WeatherDisplay:10.37,2013-07-05 22:48:00,
2013-07-05 18:51:00,80.4,48.7,29.91,SSE,157,0.0,0.0,33,0.00,CLR,,0.00,WeatherDisplay:10.37,2013-07-05 22:51:00,
2013-07-05 18:53:00,80.4,48.7,29.92,South,180,0.0,0.0,33,0.00,CLR,,0.00,WeatherDisplay:10.37,2013-07-05 22:53:00,
2013-07-05 18:54:00,80.4,48.7,29.92,South,180,0.0,0.0,33,0.00,CLR,,0.00,WeatherDisplay:10.37,2013-07-05 22:54:00,
2013-07-05 18:55:00,80.4,48.7,29.91,South,180,2.6,0.0,33,0.00,CLR,,0.00,WeatherDisplay:10.37,2013-07-05 22:55:00,
2013-07-05 18:58:00,80.4,48.7,29.93,SSW,202,2.6,2.6,33,0.00,CLR,,0.00,WeatherDisplay:10.37,2013-07-05 22:58:00,
2013-07-05 18:59:00,80.6,48.8,29.93,SSW,202,2.6,2.6,33,0.00,CLR,,0.00,WeatherDisplay:10.37,2013-07-05 22:59:00,
2013-07-05 19:01:00,80.6,48.0,29.96,SSW,202,2.6,2.6,32,0.00,CLR,,0.00,WeatherDisplay:10.37,2013-07-05 23:01:00,
2013-07-05 19:02:00,80.6,48.0,30.02,SSW,202,2.6,2.6,32,0.00,CLR,,0.00,WeatherDisplay:10.37,2013-07-05 23:02:00,
2013-07-05 19:04:00,80.4,47.9,30.02,SW,225,2.6,2.6,32,0.00,CLR,,0.00,WeatherDisplay:10.37,2013-07-05 23:04:00,
2013-07-05 19:07:00,80.4,47.0,29.92,SW,225,2.6,0.0,31,0.00,CLR,,0.00,WeatherDisplay:10.37,2013-07-05 23:07:00,
2013-07-05 19:09:00,80.2,46.0,29.95,ENE,67,2.6,2.6,30,0.00,CLR,,0.00,WeatherDisplay:10.37,2013-07-05 23:09:00,
2013-07-05 19:11:00,80.2,46.0,29.92,ENE,67,2.6,2.6,30,0.00,CLR,,0.00,WeatherDisplay:10.37,2013-07-05 23:11:00,
2013-07-05 19:12:00,80.2,46.0,29.98,South,180,2.6,2.6,30,0.00,CLR,,0.00,WeatherDisplay:10.37,2013-07-05 23:12:00,
2013-07-05 19:13:00,80.2,46.0,29.92,ENE,67,2.6,2.6,30,0.00,CLR,,0.00,WeatherDisplay:10.37,2013-07-05 23:13:00,
2013-07-05 19:17:00,80.1,46.7,29.94,South,180,2.6,2.6,31,0.00,CLR,,0.00,WeatherDisplay:10.37,2013-07-05 23:17:00,
2013-07-05 19:20:00,79.7,45.5,29.97,WSW,247,2.6,2.6,30,0.00,CLR,,0.00,WeatherDisplay:10.37,2013-07-05 23:20:00,
2013-07-05 19:21:00,79.7,44.6,29.97,South,180,2.6,2.6,29,0.00,CLR,,0.00,WeatherDisplay:10.37,2013-07-05 23:21:00,
2013-07-05 19:23:00,79.5,44.5,29.98,SSW,202,2.6,0.0,29,0.00,CLR,,0.00,WeatherDisplay:10.37,2013-07-05 23:23:00,
2013-07-05 19:24:00,79.5,45.4,29.98,SSW,202,2.6,0.0,30,0.00,CLR,,0.00,WeatherDisplay:10.37,2013-07-05 23:24:00,
2013-07-05 19:26:00,79.5,44.5,29.92,NNW,337,2.6,0.0,29,0.00,CLR,,0.00,WeatherDisplay:10.37,2013-07-05 23:26:00,
2013-07-05 19:28:00,79.3,44.3,29.94,South,180,2.6,0.0,29,0.00,CLR,,0.00,WeatherDisplay:10.37,2013-07-05 23:28:00,
2013-07-05 19:30:00,79.3,45.2,30.02,South,180,2.6,0.0,30,0.00,CLR,,0.00,WeatherDisplay:10.37,2013-07-05 23:30:00,
2013-07-05 19:31:00,79.2,45.0,30.02,South,180,2.6,0.0,30,0.00,CLR,,0.00,WeatherDisplay:10.37,2013-07-05 23:31:00,
2013-07-05 19:33:00,79.2,46.8,29.99,NE,45,2.6,0.0,32,0.00,CLR,,0.00,WeatherDisplay:10.37,2013-07-05 23:33:00,
2013-07-05 19:36:00,79.3,48.5,29.98,SSE,157,2.6,0.0,34,0.00,CLR,,0.00,WeatherDisplay:10.37,2013-07-05 23:36:00,
2013-07-05 19:37:00,79.3,48.5,29.91,ENE,67,2.3,0.0,34,0.00,CLR,,0.00,WeatherDisplay:10.37,2013-07-05 23:37:00,
2013-07-05 19:38:00,79.2,48.4,29.91,ENE,67,2.3,0.0,34,0.00,CLR,,0.00,WeatherDisplay:10.37,2013-07-05 23:38:00,
2013-07-05 19:40:00,79.2,49.1,29.92,SSE,157,0.0,0.0,35,0.00,CLR,,0.00,WeatherDisplay:10.37,2013-07-05 23:40:00,
2013-07-05 19:43:00,79.2,49.9,29.96,SSE,157,0.0,0.0,36,0.00,CLR,,0.00,WeatherDisplay:10.37,2013-07-05 23:43:00,
2013-07-05 19:44:00,79.2,49.1,29.90,SE,135,0.0,0.0,35,0.00,CLR,,0.00,WeatherDisplay:10.37,2013-07-05 23:44:00,
2013-07-05 19:45:00,79.0,49.0,29.90,SE,135,0.0,0.0,35,0.00,CLR,,0.00,WeatherDisplay:10.37,2013-07-05 23:45:00,
2013-07-05 19:49:00,79.0,48.2,29.98,SW,225,0.3,0.3,34,0.00,CLR,,0.00,WeatherDisplay:10.37,2013-07-05 23:49:00,
2013-07-05 19:50:00,79.0,48.2,29.95,SSW,202,0.3,0.3,34,0.00,CLR,,0.00,WeatherDisplay:10.37,2013-07-05 23:50:00,
2013-07-05 19:52:00,79.0,48.2,29.96,South,180,0.3,0.0,34,0.00,CLR,,0.00,WeatherDisplay:10.37,2013-07-05 23:52:00,
2013-07-05 19:55:00,79.2,48.4,29.96,SSE,157,0.3,0.0,34,0.00,CLR,,0.00,WeatherDisplay:10.37,2013-07-05 23:55:00,
2013-07-05 19:56:00,79.2,48.4,29.90,South,180,0.3,0.0,34,0.00,CLR,,0.00,WeatherDisplay:10.37,2013-07-05 23:56:00,
2013-07-05 19:58:00,79.0,49.0,29.96,WSW,247,0.3,0.0,35,0.00,CLR,,0.00,WeatherDisplay:10.37,2013-07-05 23:58:00,
2013-07-05 20:00:00,79.0,49.0,29.97,West,270,1.0,1.0,35,0.00,CLR,,0.00,WeatherDisplay:10.37,2013-07-06 00:00:00,
2013-07-05 20:01:00,79.0,49.0,29.97,West,270,1.2,1.2,35,0.00,CLR,,0.00,WeatherDisplay:10.37,2013-07-06 00:01:00,
2013-07-05 20:02:00,79.0,49.0,29.97,SSE,157,1.2,0.0,35,0.00,CLR,,0.00,WeatherDisplay:10.37,2013-07-06 00:02:00,
2013-07-05 20:06:00,78.8,48.8,30.00,South,180,1.2,0.0,35,0.00,CLR,,0.00,WeatherDisplay:10.37,2013-07-06 00:06:00,
2013-07-05 20:07:00,78.8,48.1,29.96,South,180,1.2,0.0,34,0.00,CLR,,0.00,WeatherDisplay:10.37,2013-07-06 00:07:00,
2013-07-05 20:11:00,78.8,47.3,29.96,WSW,247,1.2,1.2,33,0.00,CLR,,0.00,WeatherDisplay:10.37,2013-07-06 00:11:00,
2013-07-05 20:12:00,78.8,47.3,29.90,SSW,202,1.2,1.2,33,0.00,CLR,,0.00,WeatherDisplay:10.37,2013-07-06 00:12:00,
2013-07-05 20:14:00,78.6,47.1,29.91,SW,225,1.2,0.0,33,0.00,CLR,,0.00,WeatherDisplay:10.37,2013-07-06 00:14:00,
2013-07-05 20:15:00,78.6,47.1,29.91,SW,225,1.2,0.0,33,0.00,CLR,,0.00,WeatherDisplay:10.37,2013-07-06 00:15:00,
2013-07-05 20:19:00,78.4,46.1,29.95,South,180,1.2,0.0,32,0.00,CLR,,0.00,WeatherDisplay:10.37,2013-07-06 00:19:00,
2013-07-05 20:20:00,78.4,45.3,30.01,SSW,202,1.2,0.0,31,0.00,CLR,,0.00,WeatherDisplay:10.37,2013-07-06 00:20:00,
2013-07-05 20:22:00,78.4,45.3,29.95,South,180,1.2,0.0,31,0.00,CLR,,0.00,WeatherDisplay:10.37,2013-07-06 00:22:00,
2013-07-05 20:24:00,78.4,46.1,29.95,South,180,1.2,0.0,32,0.00,CLR,,0.00,WeatherDisplay:10.37,2013-07-06 00:24:00,
2013-07-05 20:26:00,78.4,46.1,29.97,SSW,202,1.2,0.0,32,0.00,CLR,,0.00,WeatherDisplay:10.37,2013-07-06 00:26:00,
2013-07-05 20:27:00,78.4,46.9,29.91,South,180,1.2,0.0,33,0.00,CLR,,0.00,WeatherDisplay:10.37,2013-07-06 00:27:00,
2013-07-05 20:29:00,78.3,46.0,29.91,South,180,1.2,0.0,32,0.00,CLR,,0.00,WeatherDisplay:10.37,2013-07-06 00:29:00,
2013-07-05 20:31:00,78.1,46.6,29.91,SSW,202,1.2,0.0,33,0.00,CLR,,0.00,WeatherDisplay:10.37,2013-07-06 00:31:00,
2013-07-05 20:32:00,78.1,46.6,29.97,SSW,202,1.2,0.0,33,0.00,CLR,,0.00,WeatherDisplay:10.37,2013-07-06 00:32:00,
2013-07-05 20:33:00,78.1,46.6,29.97,SSE,157,1.2,0.0,33,0.00,CLR,,0.00,WeatherDisplay:10.37,2013-07-06 00:33:00,
2013-07-05 20:35:00,77.9,46.5,29.91,South,180,1.2,0.0,33,0.00,CLR,,0.00,WeatherDisplay:10.37,2013-07-06 00:35:00,
2013-07-05 20:36:00,77.9,46.5,30.02,South,180,1.2,0.0,33,0.00,CLR,,0.00,WeatherDisplay:10.37,2013-07-06 00:36:00,
2013-07-05 20:39:00,77.9,46.5,30.02,SE,135,1.2,0.0,33,0.00,CLR,,0.00,WeatherDisplay:10.37,2013-07-06 00:39:00,
2013-07-05 20:41:00,77.7,46.3,29.91,SE,135,0.0,0.0,33,0.00,CLR,,0.00,WeatherDisplay:10.37,2013-07-06 00:41:00,
2013-07-05 20:43:00,77.5,46.2,30.01,SE,135,0.0,0.0,33,0.00,CLR,,0.00,WeatherDisplay:10.37,2013-07-06 00:43:00,
2013-07-05 20:44:00,77.5,46.2,29.91,SE,135,0.0,0.0,33,0.00,CLR,,0.00,WeatherDisplay:10.37,2013-07-06 00:44:00,
2013-07-05 20:47:00,77.4,46.0,30.02,SSE,157,0.0,0.0,33,0.00,CLR,,0.00,WeatherDisplay:10.37,2013-07-06 00:47:00,
2013-07-05 20:49:00,77.4,46.0,29.92,SSE,157,0.0,0.0,33,0.00,CLR,,0.00,WeatherDisplay:10.37,2013-07-06 00:49:00,
2013-07-05 20:50:00,77.4,46.0,30.02,SSE,157,0.0,0.0,33,0.00,CLR,,0.00,WeatherDisplay:10.37,2013-07-06 00:50:00,
2013-07-05 20:51:00,77.2,45.8,30.02,South,180,0.0,0.0,33,0.00,CLR,,0.00,WeatherDisplay:10.37,2013-07-06 00:51:00,
2013-07-05 20:54:00,77.2,45.8,29.99,South,180,0.0,0.0,33,0.00,CLR,,0.00,WeatherDisplay:10.37,2013-07-06 00:54:00,
2013-07-05 20:55:00,77.0,45.7,29.99,SW,225,0.0,0.0,33,0.00,CLR,,0.00,WeatherDisplay:10.37,2013-07-06 00:55:00,
2013-07-05 20:57:00,77.0,45.7,29.92,SSE,157,0.0,0.0,33,0.00,CLR,,0.00,WeatherDisplay:10.37,2013-07-06 00:57:00,
2013-07-05 20:58:00,77.0,45.7,29.98,SSE,157,0.0,0.0,33,0.00,CLR,,0.00,WeatherDisplay:10.37,2013-07-06 00:58:00,
2013-07-05 21:02:00,76.8,45.5,29.98,SSE,157,0.0,0.0,33,0.00,CLR,,0.00,WeatherDisplay:10.37,2013-07-06 01:02:00,
2013-07-05 21:04:00,76.6,45.4,30.00,SSE,157,0.0,0.0,33,0.00,CLR,,0.00,WeatherDisplay:10.37,2013-07-06 01:04:00,
2013-07-05 21:05:00,76.6,45.4,29.98,SSE,157,0.0,0.0,33,0.00,CLR,,0.00,WeatherDisplay:10.37,2013-07-06 01:05:00,
2013-07-05 21:06:00,76.6,45.4,29.98,SSE,157,0.0,0.0,33,0.00,CLR,,0.00,WeatherDisplay:10.37,2013-07-06 01:06:00,
2013-07-05 21:11:00,76.5,45.2,29.94,SSE,157,0.0,0.0,33,0.00,CLR,,0.00,WeatherDisplay:10.37,2013-07-06 01:11:00,
2013-07-05 21:12:00,76.5,45.2,29.94,SSE,157,0.0,0.0,33,0.00,CLR,,0.00,WeatherDisplay:10.37,2013-07-06 01:12:00,
2013-07-05 21:16:00,76.1,45.7,29.98,SSE,157,0.0,0.0,34,0.00,CLR,,0.00,WeatherDisplay:10.37,2013-07-06 01:16:00,
2013-07-05 21:17:00,76.1,45.7,29.98,SSE,157,0.0,0.0,34,0.00,CLR,,0.00,WeatherDisplay:10.37,2013-07-06 01:17:00,
2013-07-05 21:18:00,75.9,45.5,29.98,SSE,157,0.0,0.0,34,0.00,CLR,,0.00,WeatherDisplay:10.37,2013-07-06 01:18:00,
2013-07-05 21:21:00,75.7,46.1,29.98,SSE,157,0.0,0.0,35,0.00,CLR,,0.00,WeatherDisplay:10.37,2013-07-06 01:21:00,
2013-07-05 21:23:00,75.7,46.1,29.99,SSE,157,0.0,0.0,35,0.00,CLR,,0.00,WeatherDisplay:10.37,2013-07-06 01:23:00,
2013-07-05 21:24:00,75.6,46.0,29.99,SSE,157,0.0,0.0,35,0.00,CLR,,0.00,WeatherDisplay:10.37,2013-07-06 01:24:00,
2013-07-05 21:25:00,75.6,45.2,29.95,SSE,157,0.0,0.0,34,0.00,CLR,,0.00,WeatherDisplay:10.37,2013-07-06 01:25:00,
2013-07-05 21:29:00,75.2,44.9,29.98,SSE,157,0.0,0.0,34,0.00,CLR,,0.00,WeatherDisplay:10.37,2013-07-06 01:29:00,
2013-07-05 21:30:00,75.0,44.7,29.98,SSE,157,0.0,0.0,34,0.00,CLR,,0.00,WeatherDisplay:10.37,2013-07-06 01:30:00,
2013-07-05 21:31:00,75.0,45.5,29.98,SSE,157,0.0,0.0,35,0.00,CLR,,0.00,WeatherDisplay:10.37,2013-07-06 01:31:00,
2013-07-05 21:32:00,75.0,45.5,29.94,SSE,157,0.0,0.0,35,0.00,CLR,,0.00,WeatherDisplay:10.37,2013-07-06 01:32:00,
2013-07-05 21:37:00,74.7,45.2,29.92,SSE,157,0.0,0.0,35,0.00,CLR,,0.00,WeatherDisplay:10.37,2013-07-06 01:37:00,
2013-07-05 21:39:00,74.5,45.0,29.92,SSE,157,0.0,0.0,35,0.00,CLR,,0.00,WeatherDisplay:10.37,2013-07-06 01:39:00,
2013-07-05 21:40:00,74.5,45.0,29.98,SSE,157,0.0,0.0,35,0.00,CLR,,0.00,WeatherDisplay:10.37,2013-07-06 01:40:00,
2013-07-05 21:42:00,74.3,44.1,29.92,SSE,157,0.0,0.0,34,0.00,CLR,,0.00,WeatherDisplay:10.37,2013-07-06 01:42:00,
2013-07-05 21:43:00,74.1,43.9,29.92,SSE,157,0.0,0.0,34,0.00,CLR,,0.00,WeatherDisplay:10.37,2013-07-06 01:43:00,
2013-07-05 21:45:00,74.1,43.9,30.03,SSE,157,0.0,0.0,34,0.00,CLR,,0.00,WeatherDisplay:10.37,2013-07-06 01:45:00,
2013-07-05 21:46:00,74.1,43.9,30.03,SSE,157,0.0,0.0,34,0.00,CLR,,0.00,WeatherDisplay:10.37,2013-07-06 01:46:00,
2013-07-05 21:47:00,73.9,43.8,30.03,SSE,157,0.0,0.0,34,0.00,CLR,,0.00,WeatherDisplay:10.37,2013-07-06 01:47:00,
2013-07-05 21:51:00,73.8,43.6,30.03,SSE,157,0.0,0.0,34,0.00,CLR,,0.00,WeatherDisplay:10.37,2013-07-06 01:51:00,
2013-07-05 21:52:00,73.8,43.6,29.93,SSE,157,0.0,0.0,34,0.00,CLR,,0.00,WeatherDisplay:10.37,2013-07-06 01:52:00,
2013-07-05 21:53:00,73.6,43.5,29.93,SSE,157,0.0,0.0,34,0.00,CLR,,0.00,WeatherDisplay:10.37,2013-07-06 01:53:00,
2013-07-05 21:54:00,73.6,44.2,29.99,SSE,157,0.0,0.0,35,0.00,CLR,,0.00,WeatherDisplay:10.37,2013-07-06 01:54:00,
2013-07-05 21:57:00,73.6,43.5,30.00,SSE,157,0.0,0.0,34,0.00,CLR,,0.00,WeatherDisplay:10.37,2013-07-06 01:57:00,
2013-07-05 21:58:00,73.6,44.2,29.93,SSE,157,0.0,0.0,35,0.00,CLR,,0.00,WeatherDisplay:10.37,2013-07-06 01:58:00,
2013-07-05 22:02:00,73.4,44.1,30.00,SSE,157,0.0,0.0,35,0.00,CLR,,0.00,WeatherDisplay:10.37,2013-07-06 02:02:00,
2013-07-05 22:03:00,73.4,44.1,30.00,SSE,157,0.0,0.0,35,0.00,CLR,,0.00,WeatherDisplay:10.37,2013-07-06 02:03:00,
2013-07-05 22:06:00,73.4,43.3,29.97,SE,135,0.0,0.0,34,0.00,CLR,,0.00,WeatherDisplay:10.37,2013-07-06 02:06:00,
2013-07-05 22:07:00,73.2,43.2,29.97,South,180,0.0,0.0,34,0.00,CLR,,0.00,WeatherDisplay:10.37,2013-07-06 02:07:00,
2013-07-05 22:08:00,73.2,43.2,30.00,South,180,0.0,0.0,34,0.00,CLR,,0.00,WeatherDisplay:10.37,2013-07-06 02:08:00,
2013-07-05 22:10:00,73.2,43.9,30.04,South,180,0.0,0.0,35,0.00,CLR,,0.00,WeatherDisplay:10.37,2013-07-06 02:10:00,
2013-07-05 22:11:00,73.2,43.9,30.04,SE,135,0.0,0.0,35,0.00,CLR,,0.00,WeatherDisplay:10.37,2013-07-06 02:11:00,
2013-07-05 22:13:00,73.0,43.8,30.00,SSE,157,0.0,0.0,35,0.00,CLR,,0.00,WeatherDisplay:10.37,2013-07-06 02:13:00,
2013-07-05 22:15:00,73.0,43.8,29.99,South,180,0.0,0.0,35,0.00,CLR,,0.00,WeatherDisplay:10.37,2013-07-06 02:15:00,
2013-07-05 22:16:00,73.0,44.5,29.93,South,180,0.0,0.0,36,0.00,CLR,,0.00,WeatherDisplay:10.37,2013-07-06 02:16:00,
2013-07-05 22:18:00,72.9,44.3,30.00,SSE,157,0.0,0.0,36,0.00,CLR,,0.00,WeatherDisplay:10.37,2013-07-06 02:18:00,
2013-07-05 22:21:00,72.9,44.3,29.93,SW,225,0.0,0.0,36,0.00,CLR,,0.00,WeatherDisplay:10.37,2013-07-06 02:21:00,
2013-07-05 22:23:00,72.9,44.3,29.99,South,180,0.0,0.0,36,0.00,CLR,,0.00,WeatherDisplay:10.37,2013-07-06 02:23:00,
2013-07-05 22:24:00,72.9,44.3,30.00,South,180,0.0,0.0,36,0.00,CLR,,0.00,WeatherDisplay:10.37,2013-07-06 02:24:00,
2013-07-05 22:25:00,72.9,44.3,30.00,South,180,0.0,0.0,36,0.00,CLR,,0.00,WeatherDisplay:10.37,2013-07-06 02:25:00,
2013-07-05 22:28:00,72.9,43.6,29.93,South,180,0.0,0.0,35,0.00,CLR,,0.00,WeatherDisplay:10.37,2013-07-06 02:28:00,
2013-07-05 22:29:00,72.9,43.6,29.93,South,180,0.0,0.0,35,0.00,CLR,,0.00,WeatherDisplay:10.37,2013-07-06 02:29:00,
2013-07-05 22:30:00,72.9,43.6,30.02,SW,225,0.0,0.0,35,0.00,CLR,,0.00,WeatherDisplay:10.37,2013-07-06 02:30:00,
2013-07-05 22:31:00,72.9,43.6,30.02,SW,225,0.0,0.0,35,0.00,CLR,,0.00,WeatherDisplay:10.37,2013-07-06 02:31:00,
2013-07-05 22:33:00,72.7,43.4,29.95,SE,135,0.0,0.0,35,0.00,CLR,,0.00,WeatherDisplay:10.37,2013-07-06 02:33:00,
2013-07-05 22:36:00,72.7,43.4,29.95,South,180,0.0,0.0,35,0.00,CLR,,0.00,WeatherDisplay:10.37,2013-07-06 02:36:00,
2013-07-05 22:37:00,72.7,43.4,29.95,South,180,0.0,0.0,35,0.00,CLR,,0.00,WeatherDisplay:10.37,2013-07-06 02:37:00,
2013-07-05 22:41:00,72.9,43.6,30.05,SSE,157,0.0,0.0,35,0.00,CLR,,0.00,WeatherDisplay:10.37,2013-07-06 02:41:00,
2013-07-05 22:43:00,72.9,43.6,30.00,SSW,202,0.0,0.0,35,0.00,CLR,,0.00,WeatherDisplay:10.37,2013-07-06 02:43:00,
2013-07-05 22:44:00,72.9,43.6,30.00,South,180,0.0,0.0,35,0.00,CLR,,0.00,WeatherDisplay:10.37,2013-07-06 02:44:00,
2013-07-05 22:45:00,72.9,43.6,30.00,South,180,0.0,0.0,35,0.00,CLR,,0.00,WeatherDisplay:10.37,2013-07-06 02:45:00,
2013-07-05 22:48:00,72.9,43.6,30.01,SSE,157,0.0,0.0,35,0.00,CLR,,0.00,WeatherDisplay:10.37,2013-07-06 02:48:00,
2013-07-05 22:49:00,72.9,43.6,30.01,SSE,157,0.0,0.0,35,0.00,CLR,,0.00,WeatherDisplay:10.37,2013-07-06 02:49:00,
2013-07-05 22:51:00,72.9,43.6,30.00,South,180,0.0,0.0,35,0.00,CLR,,0.00,WeatherDisplay:10.37,2013-07-06 02:51:00,
2013-07-05 22:52:00,72.9,42.8,30.04,SSE,157,0.0,0.0,34,0.00,CLR,,0.00,WeatherDisplay:10.37,2013-07-06 02:52:00,
2013-07-05 22:54:00,72.9,43.6,30.01,SSE,157,1.3,1.3,35,0.00,CLR,,0.00,WeatherDisplay:10.37,2013-07-06 02:54:00,
2013-07-05 22:56:00,72.9,42.8,30.04,SW,225,1.3,0.0,34,0.00,CLR,,0.00,WeatherDisplay:10.37,2013-07-06 02:56:00,
2013-07-05 22:57:00,72.9,42.8,30.04,SW,225,1.3,0.0,34,0.00,CLR,,0.00,WeatherDisplay:10.37,2013-07-06 02:57:00,
2013-07-05 22:59:00,73.0,43.8,30.00,SW,225,1.3,0.0,35,0.00,CLR,,0.00,WeatherDisplay:10.37,2013-07-06 02:59:00,
2013-07-05 23:00:00,73.0,43.8,30.04,WSW,247,1.3,0.0,35,0.00,CLR,,0.00,WeatherDisplay:10.37,2013-07-06 03:00:00,
2013-07-05 23:04:00,73.0,43.8,30.05,SW,225,1.3,0.0,35,0.00,CLR,,0.00,WeatherDisplay:10.37,2013-07-06 03:04:00,
2013-07-05 23:05:00,73.0,43.8,30.05,SW,225,1.3,1.3,35,0.00,CLR,,0.00,WeatherDisplay:10.37,2013-07-06 03:05:00,
2013-07-05 23:06:00,73.0,43.0,30.05,SSW,202,1.3,1.3,34,0.00,CLR,,0.00,WeatherDisplay:10.37,2013-07-06 03:06:00,
2013-07-05 23:08:00,73.0,43.0,30.00,SSE,157,1.3,1.3,34,0.00,CLR,,0.00,WeatherDisplay:10.37,2013-07-06 03:08:00,
2013-07-05 23:11:00,73.0,43.0,30.02,South,180,1.3,0.0,34,0.00,CLR,,0.00,WeatherDisplay:10.37,2013-07-06 03:11:00,
2013-07-05 23:13:00,73.0,43.0,30.05,South,180,1.3,0.0,34,0.00,CLR,,0.00,WeatherDisplay:10.37,2013-07-06 03:13:00,
2013-07-05 23:14:00,73.0,43.0,30.01,South,180,1.3,0.0,34,0.00,CLR,,0.00,WeatherDisplay:10.37,2013-07-06 03:14:00,
2013-07-05 23:15:00,73.0,43.0,30.01,West,270,1.3,0.0,34,0.00,CLR,,0.00,WeatherDisplay:10.37,2013-07-06 03:15:00,
2013-07-05 23:19:00,73.0,43.8,30.00,South,180,1.3,0.0,35,0.00,CLR,,0.00,WeatherDisplay:10.37,2013-07-06 03:19:00,
2013-07-05 23:20:00,73.0,43.8,30.01,South,180,1.3,0.0,35,0.00,CLR,,0.00,WeatherDisplay:10.37,2013-07-06 03:20:00,
2013-07-05 23:22:00,73.0,43.0,30.02,South,180,2.8,2.8,34,0.00,CLR,,0.00,WeatherDisplay:10.37,2013-07-06 03:22:00,
2013-07-05 23:24:00,73.2,43.2,30.04,SE,135,2.8,0.0,34,0.00,CLR,,0.00,WeatherDisplay:10.37,2013-07-06 03:24:00,
2013-07-05 23:27:00,73.2,43.2,29.99,SSE,157,2.8,2.8,34,0.00,CLR,,0.00,WeatherDisplay:10.37,2013-07-06 03:27:00,
2013-07-05 23:28:00,73.2,43.2,29.99,SSE,157,2.8,2.8,34,0.00,CLR,,0.00,WeatherDisplay:10.37,2013-07-06 03:28:00,
2013-07-05 23:29:00,73.0,43.0,29.99,SW,225,2.8,0.0,34,0.00,CLR,,0.00,WeatherDisplay:10.37,2013-07-06 03:29:00,
2013-07-05 23:33:00,73.0,43.0,30.01,WSW,247,2.8,0.0,34,0.00,CLR,,0.00,WeatherDisplay:10.37,2013-07-06 03:33:00,
2013-07-05 23:34:00,73.0,43.8,29.99,WSW,247,2.8,0.0,35,0.00,CLR,,0.00,WeatherDisplay:10.37,2013-07-06 03:34:00,
2013-07-05 23:35:00,73.0,43.8,29.99,SSE,157,2.8,2.8,35,0.00,CLR,,0.00,WeatherDisplay:10.37,2013-07-06 03:35:00,
2013-07-05 23:36:00,73.0,43.8,30.00,SSE,157,2.8,2.8,35,0.00,CLR,,0.00,WeatherDisplay:10.37,2013-07-06 03:36:00,
2013-07-05 23:37:00,73.0,43.8,30.00,SSW,202,2.8,0.0,35,0.00,CLR,,0.00,WeatherDisplay:10.37,2013-07-06 03:37:00,
2013-07-05 23:39:00,72.9,43.6,30.01,South,180,2.3,0.0,35,0.00,CLR,,0.00,WeatherDisplay:10.37,2013-07-06 03:39:00,
2013-07-05 23:41:00,72.9,43.6,29.99,SW,225,0.0,0.0,35,0.00,CLR,,0.00,WeatherDisplay:10.37,2013-07-06 03:41:00,
2013-07-05 23:42:00,72.9,44.3,30.04,SW,225,0.0,0.0,36,0.00,CLR,,0.00,WeatherDisplay:10.37,2013-07-06 03:42:00,
2013-07-05 23:45:00,72.9,44.3,30.04,SSW,202,0.0,0.0,36,0.00,CLR,,0.00,WeatherDisplay:10.37,2013-07-06 03:45:00,
2013-07-05 23:46:00,72.9,44.3,30.03,SSW,202,0.0,0.0,36,0.00,CLR,,0.00,WeatherDisplay:10.37,2013-07-06 03:46:00,
2013-07-05 23:48:00,72.7,43.4,29.99,SSW,202,0.3,0.0,35,0.00,CLR,,0.00,WeatherDisplay:10.37,2013-07-06 03:48:00,
2013-07-05 23:49:00,72.7,43.4,29.99,SSE,157,0.3,0.3,35,0.00,CLR,,0.00,WeatherDisplay:10.37,2013-07-06 03:49:00,
2013-07-05 23:51:00,72.7,42.7,29.99,SSE,157,1.2,1.2,34,0.00,CLR,,0.00,WeatherDisplay:10.37,2013-07-06 03:51:00,
2013-07-05 23:52:00,72.7,43.4,30.03,SW,225,1.2,1.2,35,0.00,CLR,,0.00,WeatherDisplay:10.37,2013-07-06 03:52:00,
2013-07-05 23:55:00,72.5,43.3,30.01,SE,135,1.2,0.0,35,0.00,CLR,,0.00,WeatherDisplay:10.37,2013-07-06 03:55:00,
2013-07-05 23:57:00,72.5,44.0,29.99,WSW,247,2.6,2.6,36,0.00,CLR,,0.00,WeatherDisplay:10.37,2013-07-06 03:57:00,
2013-07-05 23:58:00,72.5,44.0,29.99,SSE,157,2.6,2.6,36,0.00,CLR,,0.00,WeatherDisplay:10.37,2013-07-06 03:58:00,
2013-07-05 23:59:00,72.5,44.0,29.99,SSE,157,2.6,0.0,36,0.00,CLR,,0.00,WeatherDisplay:10.37,2013-07-06 03:59:00,